Weather History for Weatherford, OK

Change the Weather History Date:

Saturday, March 9, 2013

  Actual Average (KJWG) Record (KJWG)
Temperature  
Mean Temperature - -  
Max Temperature - 62 °F 80 °F (1986)
Min Temperature - 37 °F 16 °F (1969)
Moisture  
Dew Point -    
Average Humidity    
Maximum Humidity    
Minimum Humidity    
Precipitation  
Precipitation 0.25 in - - ()
Sea Level Pressure  
Sea Level Pressure 29.71 in    
Wind  
Wind Speed 14 mph (SSW)    
Max Wind Speed 22 mph    
Max Gust Speed 29 mph    
Visibility 8 miles    
Events Rain    
Averages and records for this station are not official NWS values.
T = Trace of Precipitation, MM = Missing Value Source: NWS Daily Summary

Daily Weather History Graph

Daily Weather History Graph

Search for Another Location

Airport:

Trip Planner

Search our weather history database for the weather conditions in past years. The results will help you decide how hot, cold, wet, or windy it might be!

Date:

Astronomy

Mar. 09, 2013 Rise Set
Actual Time 6:53 AM CST 6:37 PM CST
Civil Twilight 6:27 AM CST 7:02 PM CST
Nautical Twilight 5:58 AM CST 7:32 PM CST
Astronomical Twilight 5:28 AM CST 8:01 PM CST
Moon 5:14 AM CST (3/9) 4:43 PM CST (3/9)
Length of Visible Light 12h 34m
Length of Day
11h 43m
Waning Crescent, 5% of the Moon is Illuminated
Mar 9
Waning Crescent
Mar 11
New
Mar 19
First Quarter
Mar 27
Full
Apr 2
Last Quarter

Hourly Weather History & Observations

Time (CST) Temp. Dew Point Humidity Pressure Visibility Wind Dir Wind Speed Gust Speed Precip Events Conditions
12:15 AM - - N/A% 29.88 in 4.0 mi South 15.0 mph - 0.01 in Rain Light Rain
12:35 AM - - N/A% 29.88 in 4.0 mi SSE 12.7 mph - 0.01 in Rain Light Rain
12:55 AM - - N/A% 29.87 in 4.0 mi SSE 15.0 mph - 0.02 in   Drizzle
1:15 AM - - N/A% 29.86 in 3.0 mi SSE 15.0 mph 19.6 mph 0.01 in   Drizzle
1:35 AM - - N/A% 29.85 in 2.5 mi SSE 13.8 mph - 0.01 in Rain Rain
1:55 AM - - N/A% 29.85 in 2.5 mi SSE 12.7 mph - 0.01 in Rain Light Rain
2:15 AM - - N/A% 29.85 in 2.5 mi SSE 13.8 mph 18.4 mph N/A Rain Light Rain
2:35 AM - - N/A% 29.84 in 3.0 mi SSE 13.8 mph - N/A   Drizzle
3:15 AM - - N/A% 29.81 in 3.0 mi SSE 13.8 mph 20.7 mph N/A   Light Drizzle
3:35 AM - - N/A% 29.80 in 4.0 mi SSE 15.0 mph 19.6 mph N/A Rain Rain
3:55 AM - - N/A% 29.79 in 4.0 mi SSE 16.1 mph 24.2 mph N/A   Light Drizzle
4:15 AM - - N/A% 29.79 in 5.0 mi SSE 17.3 mph 23.0 mph N/A   Haze
4:35 AM - - N/A% 29.79 in 5.0 mi SSE 18.4 mph 27.6 mph N/A   Haze
4:55 AM - - N/A% 29.78 in 5.0 mi SSE 17.3 mph 23.0 mph N/A Rain Light Rain
5:15 AM - - N/A% 29.77 in 5.0 mi SSE 17.3 mph 25.3 mph 0.01 in Rain Light Rain
5:35 AM - - N/A% 29.77 in 7.0 mi SSE 16.1 mph 24.2 mph 0.01 in   Overcast
6:15 AM - - N/A% 29.77 in 7.0 mi SSE 20.7 mph 25.3 mph N/A Rain Rain
6:35 AM - - N/A% 29.76 in 7.0 mi South 19.6 mph 25.3 mph 0.01 in Rain Light Rain
6:55 AM - - N/A% 29.75 in 7.0 mi SSE 19.6 mph 26.5 mph 0.01 in   Overcast
7:15 AM - - N/A% 29.75 in 5.0 mi SSE 18.4 mph 26.5 mph N/A   Haze
7:35 AM - - N/A% 29.75 in 7.0 mi SSE 19.6 mph 26.5 mph N/A   Overcast
7:55 AM - - N/A% 29.74 in 7.0 mi SSE 17.3 mph 26.5 mph N/A   Overcast
8:15 AM - - N/A% 29.73 in 7.0 mi SSE 19.6 mph 26.5 mph N/A   Overcast
8:35 AM - - N/A% 29.73 in 7.0 mi SSE 18.4 mph 28.8 mph N/A   Overcast
9:15 AM - - N/A% 29.72 in 5.0 mi SSE 21.9 mph 28.8 mph N/A   Haze
9:35 AM - - N/A% 29.72 in 5.0 mi South 19.6 mph 25.3 mph N/A   Haze
9:55 AM - - N/A% 29.71 in 5.0 mi South 18.4 mph 26.5 mph N/A   Haze
10:15 AM - - N/A% 29.71 in 7.0 mi South 20.7 mph 27.6 mph N/A   Overcast
10:35 AM - - N/A% 29.71 in 7.0 mi South 16.1 mph 24.2 mph N/A   Overcast
10:55 AM - - N/A% 29.70 in 7.0 mi South 19.6 mph 25.3 mph N/A   Overcast
11:15 AM - - N/A% 29.69 in 10.0 mi South 18.4 mph 23.0 mph N/A   Overcast
11:35 AM - - N/A% 29.69 in 10.0 mi South 15.0 mph 25.3 mph N/A   Overcast
11:55 AM - - N/A% 29.69 in 10.0 mi South 11.5 mph - N/A   Overcast
12:15 PM - - N/A% 29.69 in 7.0 mi SW 13.8 mph 17.3 mph 0.01 in Rain Heavy Rain
12:35 PM - - N/A% 29.69 in 2.5 mi West 13.8 mph 19.6 mph 0.20 in Rain Heavy Rain
1:15 PM - - N/A% 29.66 in 10.0 mi SSW 4.6 mph - N/A   Mostly Cloudy
1:35 PM - - N/A% 29.65 in 10.0 mi SW 8.1 mph - N/A   Mostly Cloudy
1:55 PM - - N/A% 29.64 in 10.0 mi SSW 6.9 mph - N/A   Mostly Cloudy
2:15 PM - - N/A% 29.63 in 10.0 mi SW 8.1 mph - N/A   Mostly Cloudy
2:35 PM - - N/A% 29.63 in 10.0 mi West 10.4 mph - N/A   Overcast
2:55 PM - - N/A% 29.62 in 10.0 mi WSW 15.0 mph 19.6 mph N/A   Overcast
3:15 PM - - N/A% 29.63 in 10.0 mi SW 8.1 mph 18.4 mph N/A   Overcast
3:35 PM - - N/A% 29.63 in 10.0 mi SW 5.8 mph - N/A   Overcast
3:55 PM - - N/A% 29.64 in 10.0 mi SW 13.8 mph 20.7 mph N/A   Overcast
4:15 PM - - N/A% 29.63 in 10.0 mi SW 13.8 mph - N/A   Overcast
4:35 PM - - N/A% 29.62 in 10.0 mi WSW 10.4 mph - N/A   Mostly Cloudy
4:55 PM - - N/A% 29.60 in 10.0 mi SW 8.1 mph - N/A   Scattered Clouds
5:15 PM - - N/A% 29.60 in 10.0 mi WSW 13.8 mph 17.3 mph N/A   Scattered Clouds
5:35 PM - - N/A% 29.61 in 10.0 mi SW 13.8 mph 21.9 mph N/A   Mostly Cloudy
5:55 PM - - N/A% 29.62 in 10.0 mi WSW 11.5 mph 17.3 mph N/A   Mostly Cloudy
6:15 PM - - N/A% 29.63 in 10.0 mi WSW 15.0 mph 18.4 mph N/A   Mostly Cloudy
6:35 PM - - N/A% 29.63 in 10.0 mi WSW 11.5 mph 18.4 mph N/A   Scattered Clouds
6:55 PM - - N/A% 29.63 in 10.0 mi SW 10.4 mph 16.1 mph N/A   Scattered Clouds
7:15 PM - - N/A% 29.63 in 10.0 mi SW 8.1 mph - N/A   Mostly Cloudy
7:35 PM - - N/A% 29.66 in 10.0 mi SW 9.2 mph - N/A   Mostly Cloudy
8:15 PM - - N/A% 29.66 in 10.0 mi SW 6.9 mph - N/A   Clear
8:35 PM - - N/A% 29.68 in 10.0 mi SSW 6.9 mph - N/A   Clear
8:55 PM - - N/A% 29.67 in 10.0 mi SW 4.6 mph - N/A   Clear
9:15 PM - - N/A% 29.70 in 10.0 mi SW 11.5 mph - N/A   Scattered Clouds
9:35 PM - - N/A% 29.65 in 10.0 mi West 8.1 mph - N/A   Scattered Clouds
9:55 PM - - N/A% 29.67 in 10.0 mi SW 5.8 mph - N/A   Clear
10:15 PM - - N/A% 29.71 in 10.0 mi SSW 6.9 mph - N/A   Clear
10:35 PM - - N/A% 29.65 in 10.0 mi WSW 6.9 mph - N/A   Mostly Cloudy
10:55 PM - - N/A% 29.71 in 10.0 mi West 10.4 mph - N/A   Scattered Clouds
11:15 PM - - N/A% 29.66 in 10.0 mi WNW 10.4 mph - N/A   Scattered Clouds
11:35 PM - - N/A% 29.73 in 10.0 mi WNW 15.0 mph - N/A   Scattered Clouds